Theta_e
349 349 349 351 352 351 346 348 349 349 347 349 348 348 347 342 343 342 345 345 346 346 346 349 352 352 347 345 342 339 341 343 344 344 345 344 348 348 343 346 338 337 343
347 349 350 351 352 351 349 349 349 349 349 348 348 348 348 348 345 346 346 348 348 347 347 353 353 352 352 352 342 343 342 345 344 343 344 347 346 344 338 338 340 340 348
349 350 351 351 350 349 348 350 348 347 351 350 350 349 349 352 349 350 350 348 348 351 352 353 352 353 353 351 346 344 348 344 341 339 342 347 344 343 344 347 348 348 350
348 351 352 351 350 348 348 348 348 351 351 349 350 351 350 351 351 352 354 350 350 352 352 352 352 350 345 345 338 343 347 344 340 332 342 347 347 338 346 351 349 349 346
350 350 347 348 347 346 347 348 347 349 351 350 349 353 353 353 354 354 352 352 352 352 353 353 353 347 343 343 340 341 347 344 344 333 341 345 347 348 347 350 350 343 340
349 346 349 349 350 349 345 342 343 346 346 352 353 353 352 355 352 353 354 353 354 353 353 353 353 352 347 344 342 343 342 344 343 342 338 346 347 349 348 347 349 350 349
350 348 347 348 346 347 348 348 343 342 343 346 348 350 350 354 353 354 354 353 353 353 353 353 351 348 344 343 343 345 345 345 344 343 340 347 345 348 350 350 349 348 348
347 346 349 349 343 342 341 344 343 343 343 343 344 346 348 351 350 354 354 353 350 352 351 347 347 345 344 343 344 345 346 346 347 345 343 343 341 347 348 346 345 341 339
349 345 346 348 345 349 347 343 340 340 342 342 342 345 346 353 350 350 351 352 349 350 347 344 345 345 345 344 344 338 343 345 345 345 337 336 339 347 348 347 346 344 342
349 349 345 348 352 349 343 339 339 344 343 342 342 343 347 348 350 343 344 348 348 348 346 344 344 346 346 344 341 338 342 346 345 343 335 335 337 344 347 347 348 345 344
349 351 349 344 348 345 345 351 348 343 343 342 342 342 345 345 343 342 347 343 344 343 344 344 344 344 347 341 341 340 339 343 347 345 338 339 340 348 348 347 343 340 340
350 350 348 345 350 346 347 348 346 346 342 342 342 347 347 352 351 352 349 336 340 342 344 343 342 341 346 344 346 345 339 343 346 345 338 341 340 349 348 346 341 340 340
347 349 349 349 349 345 341 343 346 346 344 343 343 342 349 350 352 352 346 331 338 341 343 346 347 347 348 345 348 344 339 339 344 347 340 340 341 347 347 342 339 339 340
348 349 349 346 347 346 343 342 342 343 341 342 340 335 348 349 350 349 336 341 344 345 347 346 341 344 340 337 339 334 345 345 345 346 341 340 341 344 346 342 342 342 343
350 349 349 348 347 345 347 345 343 340 341 340 338 339 335 348 349 348 343 344 347 347 349 347 345 343 340 341 336 341 342 343 348 342 341 340 341 343 345 345 343 343 343
349 347 350 349 350 348 348 346 346 344 348 347 339 346 346 347 350 348 347 347 349 349 345 350 347 344 343 345 342 335 340 342 344 346 341 341 342 339 341 344 344 342 343
348 348 350 350 349 348 348 349 348 348 344 348 345 343 349 349 346 347 345 347 349 352 347 345 347 338 339 346 343 346 343 340 341 338 347 341 342 340 340 342 342 341 342
349 348 350 350 349 348 347 349 348 346 342 343 343 349 349 348 346 346 349 349 349 350 349 341 338 338 341 344 339 344 346 342 343 348 347 342 340 339 341 342 342 341 342
347 348 347 348 349 348 346 349 347 347 341 344 345 347 348 347 345 348 350 351 345 351 348 342 337 337 344 340 339 344 345 348 346 347 351 346 341 341 341 340 342 343 343
347 348 347 348 348 348 347 348 347 345 345 338 339 347 346 345 345 349 350 350 352 348 348 345 344 335 337 337 341 342 341 346 342 351 351 333 349 348 343 340 342 343 347
348 347 347 348 349 348 347 347 346 342 342 345 349 347 349 341 340 349 349 352 352 350 349 344 348 337 332 341 342 344 342 340 341 344 350 334 336 344 347 343 344 345 346
348 347 346 346 347 347 346 346 342 342 347 340 347 350 347 338 339 346 347 348 352 350 352 351 347 344 341 333 341 345 343 343 341 347 349 348 345 346 351 352 347 339 349
347 347 346 345 345 345 345 346 347 345 344 341 340 345 348 340 344 342 345 345 348 351 347 351 353 351 345 336 339 344 346 344 341 345 345 341 345 347 349 346 349 351 351
349 348 347 346 345 344 345 344 345 345 343 341 340 339 342 348 349 349 345 348 347 350 348 348 353 350 352 343 338 344 347 347 343 343 345 339 342 340 343 345 350 351 352
350 349 347 347 347 345 348 348 341 345 345 346 348 340 345 349 351 348 348 345 346 343 346 348 349 351 352 353 354 351 352 351 348 347 346 343 345 343 340 343 347 351 355
351 351 348 351 349 346 349 347 344 344 345 345 345 346 345 346 349 349 350 350 347 345 343 344 350 351 354 350 350 350 352 351 349 346 341 346 345 345 344 346 349 352 353
Wind_Speed
16 18 16 17 17 16 17 19 21 20 20 20 19 17 16 17 17 17 16 15 13 11 9 11 11 11 13 13 15 12 13 15 16 16 13 14 15 13 19 18 18 20 18
24 20 19 18 17 17 18 19 20 19 18 17 18 17 15 15 14 13 13 13 12 12 13 13 13 11 12 13 15 14 14 15 17 19 16 11 13 12 12 19 18 18 16
24 23 21 20 18 17 18 18 17 18 16 17 15 14 14 13 14 12 13 13 14 15 14 14 13 10 10 12 12 13 14 14 14 20 18 13 10 10 9 15 16 16 16
24 21 20 21 19 17 18 18 16 17 15 15 16 15 15 14 14 13 13 14 15 14 14 14 13 11 10 12 11 15 13 13 9 14 16 16 12 12 13 12 13 14 13
23 21 21 20 19 17 17 17 16 16 15 13 14 13 14 14 14 13 13 13 14 14 13 12 11 8 7 9 10 12 14 7 4 16 16 16 14 14 12 12 12 12 12
26 21 21 19 18 17 15 15 15 14 14 12 11 12 13 13 13 13 13 14 13 12 11 9 9 5 4 6 9 11 10 9 7 8 17 18 15 15 14 12 12 12 12
25 22 20 19 18 17 15 14 13 13 14 13 12 11 13 12 13 12 12 12 11 11 9 7 7 6 6 7 7 9 7 11 13 14 21 19 16 15 15 15 14 14 12
25 22 20 18 17 16 15 14 13 12 14 14 13 12 13 12 12 11 10 10 10 8 7 7 7 7 8 7 8 7 5 11 21 18 20 19 18 15 14 13 13 14 12
25 21 19 17 15 14 14 14 14 12 11 13 14 13 13 14 12 9 10 9 9 7 6 5 5 6 7 9 7 7 5 15 16 18 19 19 18 17 14 13 13 13 12
29 20 19 17 16 16 15 13 12 10 11 15 14 13 13 13 12 8 10 9 8 7 5 4 3 4 8 7 1 13 11 18 21 19 17 20 18 18 16 14 12 12 12
24 24 19 17 15 15 15 13 12 11 12 16 15 13 13 12 10 7 7 7 8 7 5 3 1 2 6 4 8 5 3 16 19 18 17 22 20 18 16 14 12 11 11
19 20 17 19 19 16 14 16 14 13 15 15 13 12 12 11 7 7 5 7 8 6 3 2 4 6 4 13 12 3 5 13 9 14 20 21 19 18 15 14 12 11 10
21 18 22 21 19 17 17 15 15 15 16 14 11 9 11 10 9 12 7 8 7 5 4 6 4 10 10 18 16 8 8 9 9 12 19 18 17 16 15 13 12 11 9
27 24 25 21 16 20 15 17 17 17 16 13 13 10 12 10 13 12 6 7 5 5 6 9 11 12 15 17 17 10 5 9 11 18 18 15 16 15 15 13 12 10 9
28 26 20 24 25 23 17 18 17 16 12 8 8 9 12 5 7 10 12 10 5 6 4 6 12 9 4 12 25 16 6 5 9 17 15 14 15 14 13 11 10 10 8
24 20 25 27 27 24 21 17 15 10 11 12 14 9 6 8 8 6 7 9 2 7 6 3 8 6 12 8 9 16 14 16 16 13 13 15 15 12 12 11 10 9 7
25 24 28 27 24 22 18 15 14 25 19 13 16 15 11 11 4 2 4 6 4 2 16 18 15 11 6 14 14 26 9 20 8 8 13 16 17 11 11 11 11 10 8
26 27 27 24 22 20 20 16 16 21 34 21 21 16 13 6 9 6 5 9 5 2 4 15 10 8 12 20 17 12 13 14 10 9 18 19 18 14 12 11 9 9 10
31 29 25 24 22 19 21 19 19 22 24 22 26 14 9 8 13 6 4 1 2 0 4 7 8 11 11 27 30 24 12 2 8 4 13 16 11 11 13 12 9 8 9
31 31 26 24 24 20 20 19 20 19 18 19 25 16 12 14 15 3 2 1 3 2 9 6 10 13 6 16 24 23 16 6 14 14 21 4 14 14 13 12 12 10 8
34 32 29 28 25 23 24 21 22 24 22 21 17 12 10 16 12 6 3 4 3 4 4 5 13 14 2 13 16 18 17 8 11 8 10 6 10 8 11 15 13 12 11
34 34 31 32 27 25 28 25 25 25 21 23 19 13 12 13 11 10 5 1 3 2 4 4 12 17 12 4 6 6 4 5 10 18 14 9 11 8 7 11 14 12 14
33 33 33 31 28 25 28 27 24 22 21 21 20 15 13 12 10 9 8 4 2 1 1 2 5 9 9 8 3 5 3 2 4 7 12 10 14 6 8 12 15 12 17
34 36 34 32 28 24 29 28 30 24 18 22 24 22 18 14 12 11 11 8 8 6 3 2 4 4 4 7 7 5 13 13 2 3 4 6 3 11 8 3 21 14 17
35 36 37 33 30 27 29 29 29 25 23 23 20 20 20 20 19 15 12 14 11 13 10 5 4 4 3 1 0 3 6 5 4 2 2 7 8 7 16 1 7 16 23
34 34 38 37 34 31 28 27 29 27 24 23 23 23 20 21 21 17 15 14 14 13 13 12 6 7 7 8 8 6 5 3 10 4 1 4 6 5 7 1 3 13 15
Wind_Direction
141 139 134 124 122 121 117 113 106 103 105 108 110 113 116 119 119 117 119 124 127 123 123 108 103 108 110 110 110 116 115 112 105 104 115 134 122 130 121 116 117 120 118
146 142 138 130 125 124 119 115 112 109 109 109 115 117 118 118 118 118 119 123 125 124 117 114 111 110 109 102 107 116 109 116 126 119 119 123 125 126 120 138 118 118 115
141 143 139 134 130 127 119 114 114 112 111 115 117 116 115 117 119 121 120 118 116 119 120 116 111 110 108 107 111 114 119 130 134 129 115 125 127 143 131 136 129 130 128
141 143 138 137 133 129 125 123 123 117 116 116 119 119 116 122 120 117 118 121 120 120 118 114 113 108 105 106 119 117 128 133 119 139 126 126 130 140 133 134 133 140 143
138 144 138 135 133 131 128 130 130 125 122 119 120 120 123 119 122 121 120 120 122 120 117 119 113 108 107 112 120 123 133 143 121 159 142 134 138 141 144 140 144 139 139
148 145 141 138 132 132 132 132 132 131 129 128 126 123 119 122 123 126 125 126 128 125 122 120 116 117 125 132 136 120 136 145 174 157 155 145 151 148 145 144 157 153 150
146 146 144 143 140 138 137 137 141 144 143 138 139 128 124 130 131 132 131 134 134 127 126 123 123 131 158 130 117 130 141 138 180 157 149 159 154 149 152 149 147 148 147
147 152 148 150 152 149 144 150 151 155 157 158 149 137 135 136 138 135 138 145 136 129 136 135 136 138 127 105 91 98 153 104 162 159 162 161 156 151 154 155 159 152 149
149 153 155 153 147 143 151 154 152 161 169 165 158 148 145 143 143 141 150 153 144 154 155 145 149 136 112 72 55 59 147 117 139 166 159 156 156 154 157 160 159 149 144
158 157 159 153 154 154 154 159 164 166 166 166 159 156 149 144 135 141 159 159 166 177 174 165 163 118 86 83 165 10 162 149 138 163 162 154 155 155 159 162 160 156 154
156 161 158 156 153 159 156 158 164 164 162 165 167 162 149 139 131 139 153 179 191 189 184 184 258 232 118 126 357 133 201 151 145 154 171 156 155 157 159 161 159 154 149
162 151 160 156 161 162 161 161 166 166 166 165 168 166 155 142 164 182 186 205 210 196 206 263 264 274 331 59 288 267 143 160 160 160 174 158 155 157 161 161 155 154 153
174 172 163 153 169 174 177 170 168 177 181 174 175 163 160 148 186 206 212 208 209 209 235 256 298 360 84 146 178 201 257 233 235 184 171 161 157 159 161 161 155 156 154
165 173 163 156 185 184 182 186 179 179 178 174 179 177 179 161 166 214 208 172 190 231 295 359 22 73 112 81 154 193 286 208 207 195 168 165 166 162 162 164 159 160 158
160 165 160 160 179 189 183 189 185 179 177 177 196 184 192 220 252 223 226 248 235 248 264 357 36 83 40 76 64 61 247 129 170 177 169 173 170 166 164 167 164 162 162
169 167 165 165 173 180 184 180 168 191 194 187 197 203 223 282 276 216 196 204 259 175 308 28 164 28 81 23 107 124 116 136 169 169 168 186 182 163 161 170 161 155 153
179 174 170 171 177 174 175 179 184 186 209 205 204 211 226 234 232 161 216 223 269 91 86 74 114 180 268 325 344 228 244 144 67 148 184 191 184 171 160 169 162 147 141
176 180 171 170 179 180 178 161 149 176 181 194 205 208 213 203 219 193 338 285 188 26 21 72 91 130 336 346 353 71 139 175 120 159 183 191 174 167 170 177 172 152 137
182 184 182 179 189 189 187 171 162 166 182 200 214 200 193 209 204 232 327 267 218 47 353 42 60 54 23 334 347 338 57 42 67 12 175 187 170 174 185 173 177 168 148
180 185 178 180 186 184 180 177 169 166 178 187 195 208 195 212 205 230 35 182 69 30 57 55 68 62 24 348 340 319 342 32 41 140 166 136 158 183 196 190 179 175 171
180 182 182 180 177 173 176 177 182 174 183 190 190 197 205 202 218 208 197 155 261 68 11 123 85 106 107 315 312 322 330 14 29 94 168 97 154 169 189 202 193 189 181
167 176 177 180 180 179 180 182 183 181 186 193 185 189 207 202 215 215 222 157 354 122 99 122 130 156 193 227 277 276 327 7 16 88 106 128 218 357 198 233 218 226 194
166 172 177 178 181 185 185 185 183 188 199 200 201 196 206 211 211 217 228 236 273 279 124 168 152 183 205 174 145 93 357 269 346 44 77 111 156 128 230 303 261 237 211
170 174 178 180 181 189 184 186 186 192 192 204 204 209 212 209 211 226 239 226 238 227 209 251 357 189 199 159 207 357 276 246 178 344 13 26 350 111 165 156 225 247 213
170 172 177 181 180 181 186 194 195 195 198 202 209 207 214 213 216 225 225 223 233 235 239 248 259 218 227 252 69 283 310 242 342 173 267 285 318 37 40 327 227 240 218
172 169 174 179 184 185 193 197 199 198 204 209 215 216 218 214 217 222 226 227 233 241 244 235 240 236 240 258 266 294 328 8 349 322 199 233 249 311 77 242 304 217 197